McHenry, MD

5:59 PM EST on February 22, 2017 (GMT -0500)
Oakland

Weather History for K2G4 - February, 2013

Change the Weather History Date:

Thursday, February 21, 2013

  Actual Average (KMGW) Record (KMGW)
Temperature  
Mean Temperature 16 °F -  
Max Temperature 21 °F 46 °F 73 °F (1997)
Min Temperature 12 °F 26 °F -8 °F (1968)
Degree Days  
Heating Degree Days 48    
Moisture  
Dew Point 12 °F    
Average Humidity 89    
Maximum Humidity 100    
Minimum Humidity 74    
Precipitation  
Precipitation 0.00 in - - ()
Sea Level Pressure  
Sea Level Pressure 30.08 in    
Wind  
Wind Speed 11 mph (WNW)    
Max Wind Speed 20 mph    
Max Gust Speed 25 mph    
Visibility 6 miles    
Events Fog    
Averages and records for this station are not official NWS values.
T = Trace of Precipitation, MM = Missing Value Source: NWS Daily Summary

Daily Weather History Graph

Daily Weather History Graph

Search for Another Location

Airport or City:

Trip Planner

Search our weather history database for the weather conditions in past years. The results will help you decide how hot, cold, wet, or windy it might be!

Date:

Astronomy

Feb. 21, 2013 Rise Set
Actual Time 7:01 AM EST 6:01 PM EST
Civil Twilight 6:34 AM EST 6:28 PM EST
Nautical Twilight 6:02 AM EST 6:59 PM EST
Astronomical Twilight 5:31 AM EST 7:30 PM EST
Moon 2:14 PM EST (2/21) 4:04 AM EST (2/21)
Length of Visible Light 11h 54m
Length of Day
10h 59m
Waxing Gibbous, 83% of the Moon is Illuminated
Feb 21
Waxing Gibbous
Feb 25
Full
Mar 4
Last Quarter
Mar 11
New
Mar 19
First Quarter

Hourly Weather History & Observations

Time (EST) Temp. Windchill Dew Point Humidity Pressure Visibility Wind Dir Wind Speed Gust Speed Precip Events Conditions
12:05 AM 12.2 °F -1.8 °F 8.6 °F 85% 29.99 in 7.0 mi West 11.5 mph 21.9 mph N/A   Overcast
12:25 AM 12.2 °F -1.8 °F 8.6 °F 85% 29.99 in 5.0 mi WNW 11.5 mph 24.2 mph N/A   Overcast
12:45 AM 12.2 °F -3.7 °F 8.6 °F 85% 29.99 in 7.0 mi WNW 15.0 mph 23.0 mph N/A   Overcast
1:05 AM 12.2 °F -3.1 °F 8.6 °F 85% 29.99 in 7.0 mi WNW 13.8 mph 23.0 mph N/A   Overcast
1:25 AM 12.2 °F -2.5 °F 8.6 °F 85% 29.99 in 4.0 mi West 12.7 mph 24.2 mph N/A   Overcast
1:45 AM 12.2 °F -3.1 °F 8.6 °F 85% 29.99 in 4.0 mi West 13.8 mph 25.3 mph N/A   Overcast
2:05 AM 12.2 °F -0.2 °F 10.4 °F 92% 29.99 in 2.5 mi West 9.2 mph 18.4 mph N/A   Overcast
2:25 AM 12.2 °F -2.5 °F 10.4 °F 92% 29.99 in 3.0 mi West 12.7 mph 23.0 mph N/A   Overcast
2:45 AM 12.2 °F -4.3 °F 10.4 °F 92% 29.99 in 3.0 mi West 16.1 mph 21.9 mph N/A   Overcast
3:05 AM 12.2 °F -3.7 °F 10.4 °F 92% 29.98 in 3.0 mi West 15.0 mph 24.2 mph N/A   Overcast
3:25 AM 12.2 °F -3.1 °F 10.4 °F 92% 29.98 in 4.0 mi West 13.8 mph 20.7 mph N/A   Overcast
3:45 AM 12.2 °F -4.3 °F 10.4 °F 92% 29.99 in 2.5 mi West 16.1 mph 24.2 mph N/A   Overcast
4:05 AM 12.2 °F -3.7 °F 10.4 °F 92% 29.99 in 2.5 mi WNW 15.0 mph 25.3 mph N/A   Overcast
4:25 AM 12.2 °F -0.2 °F 10.4 °F 92% 30.00 in 4.0 mi West 9.2 mph 21.9 mph N/A   Overcast
4:45 AM 12.2 °F -3.1 °F 10.4 °F 92% 30.00 in 3.0 mi WNW 13.8 mph 23.0 mph N/A   Overcast
5:05 AM 12.2 °F -1.8 °F 10.4 °F 92% 30.01 in 2.5 mi West 11.5 mph 21.9 mph N/A   Overcast
5:25 AM 12.2 °F -3.7 °F 10.4 °F 92% 30.01 in 3.0 mi West 15.0 mph 24.2 mph N/A   Overcast
5:45 AM 12.2 °F -3.1 °F 10.4 °F 92% 30.01 in 2.5 mi WNW 13.8 mph 23.0 mph N/A   Overcast
6:05 AM 12.2 °F -0.2 °F 12.2 °F 100% 30.02 in 3.0 mi WNW 9.2 mph 24.2 mph N/A   Overcast
6:25 AM 12.2 °F -3.1 °F 12.2 °F 100% 30.03 in 3.0 mi WNW 13.8 mph 21.9 mph N/A   Overcast
7:05 AM 12.2 °F -1.0 °F 12.2 °F 100% 30.04 in 2.0 mi West 10.4 mph 19.6 mph N/A   Overcast
7:25 AM 12.2 °F -1.8 °F 12.2 °F 100% 30.05 in 1.0 mi West 11.5 mph 20.7 mph N/A   Overcast
7:45 AM 12.2 °F -2.5 °F 12.2 °F 100% 30.05 in 1.0 mi West 12.7 mph 19.6 mph N/A   Overcast
8:05 AM 12.2 °F -1.0 °F 12.2 °F 100% 30.06 in 0.8 mi WNW 10.4 mph 18.4 mph N/A   Overcast
8:25 AM 12.2 °F -0.2 °F 12.2 °F 100% 30.07 in 0.5 mi West 9.2 mph 23.0 mph N/A Fog Light Freezing Fog
8:45 AM 12.2 °F -2.5 °F 12.2 °F 100% 30.07 in 0.8 mi WNW 12.7 mph 21.9 mph N/A   Overcast
9:05 AM 12.2 °F -2.5 °F 12.2 °F 100% 30.07 in 1.5 mi WNW 12.7 mph 20.7 mph N/A   Overcast
9:25 AM 14.0 °F -1.4 °F 10.4 °F 86% 30.08 in 3.0 mi WNW 15.0 mph 23.0 mph N/A   Overcast
9:45 AM 14.0 °F -1.4 °F 10.4 °F 86% 30.10 in 4.0 mi West 15.0 mph 23.0 mph N/A   Overcast
10:05 AM 14.0 °F 0.5 °F 10.4 °F 86% 30.09 in 4.0 mi WNW 11.5 mph 20.7 mph N/A   Overcast
10:25 AM 14.0 °F 0.5 °F 12.2 °F 93% 30.08 in 4.0 mi WNW 11.5 mph 20.7 mph N/A   Overcast
10:45 AM 14.0 °F 2.0 °F 12.2 °F 93% 30.09 in 2.5 mi WNW 9.2 mph 17.3 mph N/A   Overcast
11:05 AM 14.0 °F -0.2 °F 12.2 °F 93% 30.10 in 3.0 mi West 12.7 mph 23.0 mph N/A   Overcast
11:25 AM 15.8 °F 2.7 °F 12.2 °F 86% 30.10 in 3.0 mi WNW 11.5 mph 19.6 mph N/A   Overcast
11:45 AM 15.8 °F 3.4 °F 12.2 °F 86% 30.10 in 4.0 mi West 10.4 mph 20.7 mph N/A   Overcast
12:05 PM 17.6 °F 5.7 °F 12.2 °F 79% 30.10 in 5.0 mi WNW 10.4 mph 19.6 mph N/A   Haze
12:25 PM 17.6 °F 6.4 °F 12.2 °F 79% 30.10 in 7.0 mi West 9.2 mph 21.9 mph N/A   Overcast
12:45 PM 17.6 °F 4.3 °F 12.2 °F 79% 30.09 in 7.0 mi WNW 12.7 mph 20.7 mph N/A   Overcast
1:10 PM 19.4 °F 7.2 °F 12.2 °F 74% 30.09 in 10.0 mi West 11.5 mph 18.4 mph N/A   Overcast
1:30 PM 19.4 °F 7.2 °F 14.0 °F 80% 30.09 in 10.0 mi West 11.5 mph 17.3 mph N/A   Overcast
2:10 PM 19.4 °F 9.5 °F 14.0 °F 80% 30.10 in 10.0 mi WNW 8.1 mph 17.3 mph N/A   Overcast
2:30 PM 19.4 °F 8.6 °F 14.0 °F 80% 30.10 in 10.0 mi West 9.2 mph - N/A   Overcast
2:50 PM 19.4 °F 8.6 °F 14.0 °F 80% 30.10 in 10.0 mi WNW 9.2 mph 16.1 mph N/A   Overcast
3:10 PM 19.4 °F 9.5 °F 14.0 °F 80% 30.11 in 10.0 mi NW 8.1 mph - N/A   Overcast
3:30 PM 19.4 °F 7.9 °F 14.0 °F 80% 30.10 in 10.0 mi WNW 10.4 mph 17.3 mph N/A   Overcast
3:50 PM 19.4 °F 10.4 °F 14.0 °F 80% 30.08 in 10.0 mi WNW 6.9 mph - N/A   Overcast
4:10 PM 21.2 °F 12.6 °F 14.0 °F 74% 30.10 in 10.0 mi NW 6.9 mph - N/A   Overcast
4:30 PM 19.4 °F 9.5 °F 14.0 °F 80% 30.12 in 10.0 mi WNW 8.1 mph - N/A   Overcast
4:50 PM 19.4 °F 11.5 °F 14.0 °F 80% 30.13 in 10.0 mi NW 5.8 mph - N/A   Scattered Clouds
5:10 PM 19.4 °F 11.5 °F 14.0 °F 80% 30.13 in 10.0 mi West 5.8 mph - N/A   Scattered Clouds
5:30 PM 19.4 °F 11.5 °F 14.0 °F 80% 30.14 in 10.0 mi WNW 5.8 mph - N/A   Scattered Clouds
5:50 PM 17.6 °F 10.7 °F 14.0 °F 86% 30.15 in 10.0 mi WNW 4.6 mph - N/A   Clear
6:10 PM 17.6 °F 12.3 °F 14.0 °F 86% 30.17 in 10.0 mi NW 3.5 mph - N/A   Clear
6:30 PM 17.6 °F 12.3 °F 14.0 °F 86% 30.17 in 10.0 mi NW 3.5 mph - N/A   Clear
6:50 PM 17.6 °F 12.3 °F 14.0 °F 86% 30.17 in 10.0 mi WNW 3.5 mph - N/A   Clear
7:10 PM 15.8 °F 8.6 °F 14.0 °F 93% 30.17 in 10.0 mi NNW 4.6 mph - N/A   Clear
7:30 PM 15.8 °F 10.2 °F 14.0 °F 93% 30.17 in 10.0 mi NNE 3.5 mph - N/A   Clear
7:50 PM 15.8 °F 8.6 °F 15.8 °F 100% 30.18 in 10.0 mi North 4.6 mph - N/A   Clear
8:10 PM 15.8 °F 8.6 °F 15.8 °F 100% 30.17 in 10.0 mi North 4.6 mph - N/A   Clear
8:30 PM 14.0 °F - 14.0 °F 100% 30.17 in 10.0 mi Calm Calm - N/A   Clear
8:50 PM 14.0 °F 8.2 °F 14.0 °F 100% 30.16 in 10.0 mi NE 3.5 mph - N/A   Clear
9:10 PM 15.8 °F 7.2 °F 15.8 °F 100% 30.15 in 10.0 mi East 5.8 mph - N/A   Clear
9:30 PM 15.8 °F 6.1 °F 15.8 °F 100% 30.15 in 10.0 mi East 6.9 mph - N/A   Clear
9:50 PM 14.0 °F 0.5 °F 14.0 °F 100% 30.15 in 10.0 mi ESE 11.5 mph - N/A   Clear
10:10 PM 15.8 °F 0.9 °F 15.8 °F 100% 30.13 in 10.0 mi ESE 15.0 mph - N/A   Clear
10:30 PM 17.6 °F 2.2 °F 14.0 °F 86% 30.12 in 10.0 mi East 17.3 mph - N/A   Clear
10:50 PM 17.6 °F 1.3 °F 14.0 °F 86% 30.12 in 10.0 mi ESE 19.6 mph - N/A   Clear
11:10 PM 17.6 °F 1.7 °F 14.0 °F 86% 30.11 in 10.0 mi ESE 18.4 mph 23.0 mph N/A   Clear
11:30 PM 19.4 °F 3.6 °F 14.0 °F 80% 30.10 in 10.0 mi ESE 19.6 mph 23.0 mph N/A   Clear
11:50 PM 19.4 °F 4.1 °F 14.0 °F 80% 30.12 in 10.0 mi SE 18.4 mph - N/A   Clear